Location: French Creek State Gamelands
(40.1750°N, 75.7969°W)
Time: 00:58:42
(UTC-04:00)

ISS - All Passes

Search period start: 04 May 2015 00:00
Search period end: 14 May 2015 00:00
Orbit: 395 x 402 km, 51.6° (Epoch: 03 May)

Date Brightness Start Highest point End Pass type
(mag) Time Alt. Az. Time Alt. Az. Time Alt. Az.
04 May - 08:29:52 10° SSW 08:32:51 36° SE 08:35:54 10° ENE daylight
04 May - 10:06:24 10° W 10:09:15 28° NNW 10:12:07 10° NE daylight
04 May - 11:45:08 10° NNW 11:46:26 12° N 11:47:44 10° NNE daylight
04 May - 13:22:02 10° NNW 13:23:51 14° NNE 13:25:42 10° NE daylight
04 May - 14:57:40 10° NW 15:00:50 47° NNE 15:03:59 10° ESE daylight
04 May - 16:34:37 10° W 16:36:57 18° SW 16:39:13 10° S daylight
05 May - 07:36:27 10° S 07:38:42 18° SE 07:41:01 10° E daylight
05 May - 09:11:41 10° WSW 09:14:50 47° NNW 09:17:59 10° NE daylight
05 May - 10:49:58 10° NW 10:51:48 14° NNW 10:53:36 10° NNE daylight
05 May - 12:27:55 10° NNW 12:29:13 12° N 12:30:32 10° NNE daylight
05 May - 14:03:31 10° NW 14:06:24 28° NNE 14:09:16 10° E daylight
05 May - 15:39:45 10° WNW 15:42:47 36° SW 15:45:48 10° SSE daylight
06 May - 08:17:14 10° SW 08:20:28 87° SSE 08:23:44 10° NE daylight
06 May - 09:54:49 10° WNW 09:57:11 18° NNW 09:59:32 10° NNE daylight
06 May - 11:33:30 10° NNW 11:34:32 11° N 11:35:34 10° NNE daylight
06 May - 13:09:26 10° NNW 13:11:51 19° NNE 13:14:18 10° ENE daylight
06 May - 14:45:16 10° NW 14:48:32 79° SW 14:51:46 10° SE daylight
07 May - 07:23:08 10° SSW 07:26:11 40° SE 07:29:15 10° ENE daylight
07 May - 08:59:49 10° W 09:02:37 26° NNW 09:05:25 10° NE daylight
07 May - 10:38:34 10° NNW 10:39:49 12° N 10:41:03 10° NNE daylight
07 May - 12:15:20 10° NNW 12:17:13 14° NNE 12:19:08 10° NE daylight
07 May - 13:50:58 10° NW 13:54:09 51° NNE 13:57:20 10° ESE daylight
07 May - 15:28:04 10° W 15:30:15 16° SW 15:32:21 10° S daylight
08 May - 06:29:34 10° S 06:31:57 20° SE 06:34:24 10° E daylight
08 May - 08:04:59 10° WSW 08:08:06 43° NNW 08:11:14 10° NE daylight
08 May - 09:43:21 10° NW 09:45:06 14° NNW 09:46:50 10° NNE daylight
08 May - 11:21:10 10° NNW 11:22:31 12° N 11:23:53 10° NNE daylight
08 May - 12:56:46 10° NW 12:59:40 29° NNE 13:02:35 10° E daylight
08 May - 14:33:03 10° WNW 14:36:01 33° SW 14:38:59 10° SSE daylight
09 May - 07:10:27 10° SW 07:13:40 86° NW 07:16:56 10° NE daylight
09 May - 08:48:08 10° WNW 08:50:25 17° NNW 08:52:41 10° NNE daylight
09 May - 10:26:45 10° NNW 10:27:47 11° N 10:28:48 10° NNE daylight
09 May - 12:02:36 10° NNW 12:05:04 20° NNE 12:07:34 10° ENE daylight
09 May - 13:38:28 10° WNW 13:41:43 72° SW 13:44:57 10° SE daylight
10 May - 06:16:14 10° SSW 06:19:19 44° SE 06:22:25 10° ENE daylight
10 May - 07:53:01 10° W 07:55:47 25° NNW 07:58:31 10° NNE daylight
10 May - 09:31:49 10° NNW 09:33:00 11° N 09:34:10 10° NNE daylight
10 May - 11:08:27 10° NNW 11:10:23 15° NNE 11:12:21 10° NE daylight
10 May - 12:44:05 10° NW 12:47:17 56° NNE 12:50:29 10° ESE daylight
10 May - 14:21:21 10° W 14:23:20 15° SW 14:25:15 10° SSW daylight
11 May - 05:22:31 10° S 05:25:01 21° SE 05:27:35 10° E visible
11 May - 06:58:07 10° WSW 07:01:12 40° NNW 07:04:17 10° NE daylight
11 May - 08:36:33 10° NW 08:38:13 13° NNW 08:39:52 10° NNE daylight
11 May - 10:14:14 10° NNW 10:15:38 12° N 10:17:03 10° NE daylight
11 May - 11:49:48 10° NW 11:52:45 31° NNE 11:55:42 10° E daylight
11 May - 13:26:09 10° WNW 13:29:03 30° SW 13:31:57 10° SSE daylight
12 May - 04:30:14 10° SE 04:30:45 10° SE 04:31:24 10° ESE visible
12 May - 06:03:27 10° SW 06:06:41 79° NW 06:09:56 10° NE daylight
12 May - 07:41:14 10° WNW 07:43:27 17° NNW 07:45:39 10° NNE daylight
12 May - 09:19:46 10° NNW 09:20:49 11° N 09:21:51 10° NNE daylight
12 May - 10:55:34 10° NNW 10:58:06 21° NNE 11:00:39 10° ENE daylight
12 May - 12:31:28 10° WNW 12:34:42 65° SW 12:37:54 10° SE daylight
13 May - 05:09:08 10° SSW 05:12:14 48° SE 05:15:23 10° ENE visible
13 May - 06:46:02 10° W 06:48:44 23° NNW 06:51:26 10° NNE daylight
13 May - 08:24:50 10° NNW 08:25:58 11° N 08:27:05 10° NNE daylight
13 May - 10:01:21 10° NNW 10:03:21 15° NNE 10:05:22 10° NE daylight
13 May - 11:36:59 10° NW 11:40:13 60° NE 11:43:26 10° ESE daylight
13 May - 13:14:26 10° W 13:16:14 14° SW 13:17:56 10° SSW daylight
